When you browse on this site, cookies collect data to enhance your experience and personalize the content and advertising you see.
Visit our Privacy Policy to learn more. By continuing to use the site, you agree to this use of cookies and data.

Stündliche Wetter Tykhopillya

Heute, 14 Juli, Dienstag

Zeit Temperatur Niederschläge Wind Luftdruck Luftfeuchtigkeit
00:00 +19°C° 3.2 mm 3 m/S 745 mmHg 97%
01:00 +19°C° 3.2 mm 3 m/S 745 mmHg 97%
02:00 +19°C° 3.2 mm 3 m/S 745 mmHg 97%
03:00 +19°C° 0.7 mm 3 m/S 744 mmHg 97%
04:00 +19°C° 0.7 mm 3 m/S 744 mmHg 97%
05:00 +19°C° 0.7 mm 2 m/S 744 mmHg 96%
06:00 +19°C° 0.2 mm 3 m/S 744 mmHg 94%
07:00 +19°C° 0.2 mm 4 m/S 745 mmHg 91%
08:00 +19°C° 0.2 mm 4 m/S 745 mmHg 89%
09:00 +20°C° 0.1 mm 4 m/S 745 mmHg 86%
10:00 +21°C° 0.1 mm 5 m/S 745 mmHg 83%
11:00 +21°C° 0.1 mm 5 m/S 745 mmHg 79%
12:00 +21°C° 0.2 mm 5 m/S 745 mmHg 79%
13:00 +21°C° 0.2 mm 5 m/S 746 mmHg 79%
14:00 +21°C° 0.2 mm 6 m/S 746 mmHg 79%
15:00 +20°C° 0 mm 5 m/S 746 mmHg 81%
16:00 +19°C° 0 mm 5 m/S 746 mmHg 84%
17:00 +17°C° 0 mm 5 m/S 746 mmHg 86%
18:00 +16°C° 0 mm 5 m/S 747 mmHg 86%
19:00 +16°C° 0 mm 5 m/S 747 mmHg 86%
20:00 +16°C° 0 mm 5 m/S 747 mmHg 86%
21:00 +15°C° 0 mm 5 m/S 748 mmHg 86%
22:00 +15°C° 0 mm 5 m/S 748 mmHg 86%
23:00 +15°C° 0 mm 5 m/S 748 mmHg 86%

Morgen, 15 Juli, Mittwoch

Zeit Temperatur Niederschläge Wind Luftdruck Luftfeuchtigkeit
00:00 +15°C° 0.2 mm 5 m/S 748 mmHg 88%
01:00 +15°C° 0.2 mm 5 m/S 748 mmHg 90%
02:00 +15°C° 0.2 mm 5 m/S 749 mmHg 91%
03:00 +15°C° 0.1 mm 5 m/S 749 mmHg 92%
04:00 +14°C° 0.1 mm 5 m/S 749 mmHg 92%
05:00 +14°C° 0.1 mm 5 m/S 750 mmHg 92%
06:00 +15°C° 0.1 mm 5 m/S 750 mmHg 90%
07:00 +15°C° 0.1 mm 5 m/S 751 mmHg 88%
08:00 +16°C° 0.1 mm 5 m/S 751 mmHg 86%
09:00 +19°C° 0 mm 5 m/S 751 mmHg 76%
10:00 +21°C° 0 mm 6 m/S 751 mmHg 66%
11:00 +22°C° 0 mm 6 m/S 751 mmHg 55%
12:00 +23°C° 0.1 mm 6 m/S 751 mmHg 55%
13:00 +23°C° 0.1 mm 6 m/S 751 mmHg 55%
14:00 +23°C° 0.1 mm 6 m/S 751 mmHg 55%
15:00 +23°C° 0 mm 6 m/S 751 mmHg 56%
16:00 +23°C° 0 mm 5 m/S 751 mmHg 56%
17:00 +23°C° 0 mm 4 m/S 751 mmHg 57%
18:00 +21°C° 0 mm 4 m/S 752 mmHg 63%
19:00 +20°C° 0 mm 3 m/S 752 mmHg 68%
20:00 +18°C° 0 mm 2 m/S 752 mmHg 74%
21:00 +17°C° 0 mm 2 m/S 752 mmHg 75%
22:00 +17°C° 0 mm 2 m/S 752 mmHg 76%
23:00 +16°C° 0 mm 2 m/S 752 mmHg 78%

übermorgen, 16 Juli, Donnerstag

Zeit Temperatur Niederschläge Wind Luftdruck Luftfeuchtigkeit
00:00 +16°C° 0 mm 2 m/S 752 mmHg 79%
01:00 +15°C° 0 mm 2 m/S 752 mmHg 80%
02:00 +15°C° 0 mm 2 m/S 752 mmHg 81%
03:00 +15°C° 0 mm 2 m/S 752 mmHg 82%
04:00 +15°C° 0 mm 2 m/S 752 mmHg 83%
05:00 +16°C° 0 mm 2 m/S 752 mmHg 84%
06:00 +17°C° 0 mm 2 m/S 752 mmHg 78%
07:00 +19°C° 0 mm 2 m/S 752 mmHg 72%
08:00 +21°C° 0 mm 2 m/S 753 mmHg 65%
09:00 +23°C° 0.1 mm 2 m/S 753 mmHg 61%
10:00 +24°C° 0.1 mm 2 m/S 752 mmHg 57%
11:00 +25°C° 0.1 mm 3 m/S 752 mmHg 52%
12:00 +26°C° 0 mm 3 m/S 752 mmHg 52%
13:00 +26°C° 0 mm 3 m/S 752 mmHg 52%
14:00 +26°C° 0 mm 3 m/S 752 mmHg 52%
15:00 +26°C° 0 mm 3 m/S 752 mmHg 53%
16:00 +26°C° 0 mm 3 m/S 752 mmHg 54%
17:00 +25°C° 0 mm 2 m/S 751 mmHg 56%
18:00 +24°C° 0 mm 2 m/S 752 mmHg 60%
19:00 +22°C° 0 mm 1 m/S 752 mmHg 64%
20:00 +20°C° 0 mm 1 m/S 752 mmHg 68%
21:00 +20°C° 0 mm 1 m/S 752 mmHg 70%
22:00 +19°C° 0 mm 1 m/S 752 mmHg 72%
23:00 +16°C° 0 mm 0 m/S 752 mmHg 73%

17 Juli, Freitag

Zeit Temperatur Niederschläge Wind Luftdruck Luftfeuchtigkeit
00:00 +16°C° 0 mm 0 m/S 752 mmHg 75%
01:00 +16°C° 0 mm 0 m/S 752 mmHg 77%
02:00 +15°C° 0 mm 0 m/S 752 mmHg 79%
03:00 +16°C° 0 mm 0 m/S 752 mmHg 78%
04:00 +16°C° 0 mm 0 m/S 752 mmHg 78%
05:00 +16°C° 0 mm 0 m/S 752 mmHg 77%
06:00 +20°C° 0 mm 1 m/S 752 mmHg 72%
07:00 +21°C° 0 mm 1 m/S 752 mmHg 67%
08:00 +23°C° 0 mm 1 m/S 752 mmHg 62%
09:00 +24°C° 0 mm 1 m/S 752 mmHg 58%
10:00 +25°C° 0 mm 1 m/S 752 mmHg 55%
11:00 +24°C° 0 mm 0 m/S 752 mmHg 51%
12:00 +27°C° 0 mm 1 m/S 752 mmHg 48%
13:00 +27°C° 0 mm 1 m/S 752 mmHg 46%
14:00 +28°C° 0 mm 1 m/S 752 mmHg 43%
15:00 +27°C° 0 mm 1 m/S 752 mmHg 45%
16:00 +27°C° 0 mm 1 m/S 752 mmHg 46%
17:00 +27°C° 0 mm 2 m/S 752 mmHg 48%
18:00 +25°C° 0 mm 2 m/S 752 mmHg 53%
19:00 +23°C° 0 mm 2 m/S 752 mmHg 58%
20:00 +20°C° 0 mm 2 m/S 752 mmHg 63%
21:00 +20°C° 0 mm 2 m/S 752 mmHg 65%
22:00 +19°C° 0 mm 2 m/S 753 mmHg 66%
23:00 +19°C° 0 mm 1 m/S 753 mmHg 68%

18 Juli, Samstag

Zeit Temperatur Niederschläge Wind Luftdruck Luftfeuchtigkeit
00:00 +19°C° 0 mm 1 m/S 753 mmHg 69%
01:00 +18°C° 0 mm 1 m/S 753 mmHg 70%
02:00 +18°C° 0 mm 1 m/S 753 mmHg 71%
03:00 +18°C° 0 mm 1 m/S 753 mmHg 72%
04:00 +18°C° 0 mm 1 m/S 753 mmHg 73%
05:00 +19°C° 0 mm 1 m/S 753 mmHg 74%
06:00 +20°C° 0 mm 2 m/S 753 mmHg 69%
07:00 +23°C° 0 mm 2 m/S 753 mmHg 64%
08:00 +25°C° 0 mm 2 m/S 754 mmHg 58%
09:00 +26°C° 0 mm 2 m/S 754 mmHg 54%
10:00 +27°C° 0 mm 2 m/S 753 mmHg 50%
11:00 +28°C° 0 mm 2 m/S 753 mmHg 46%
12:00 +28°C° 0 mm 2 m/S 753 mmHg 44%
13:00 +29°C° 0 mm 2 m/S 753 mmHg 42%
14:00 +29°C° 0 mm 2 m/S 753 mmHg 40%
15:00 +29°C° 0 mm 2 m/S 753 mmHg 42%
16:00 +29°C° 0 mm 2 m/S 752 mmHg 43%
17:00 +29°C° 0 mm 2 m/S 752 mmHg 44%
18:00 +27°C° 0 mm 2 m/S 752 mmHg 49%
19:00 +25°C° 0 mm 2 m/S 753 mmHg 54%
20:00 +23°C° 0 mm 2 m/S 753 mmHg 58%
21:00 +21°C° 0 mm 2 m/S 753 mmHg 59%
22:00 +21°C° 0 mm 2 m/S 753 mmHg 61%
23:00 +20°C° 0 mm 2 m/S 753 mmHg 62%

19 Juli, Sonntag

Zeit Temperatur Niederschläge Wind Luftdruck Luftfeuchtigkeit
00:00 +20°C° 0 mm 2 m/S 753 mmHg 64%
01:00 +19°C° 0 mm 2 m/S 752 mmHg 66%
02:00 +19°C° 0 mm 2 m/S 752 mmHg 68%
03:00 +19°C° 0 mm 2 m/S 752 mmHg 70%
04:00 +19°C° 0 mm 2 m/S 752 mmHg 72%
05:00 +19°C° 0 mm 2 m/S 752 mmHg 74%
06:00 +21°C° 0 mm 2 m/S 752 mmHg 68%
07:00 +24°C° 0 mm 3 m/S 752 mmHg 62%
08:00 +26°C° 0 mm 3 m/S 752 mmHg 57%
09:00 +27°C° 0 mm 3 m/S 752 mmHg 53%
10:00 +28°C° 0 mm 3 m/S 752 mmHg 50%
11:00 +29°C° 0 mm 3 m/S 752 mmHg 46%
12:00 +29°C° 0 mm 3 m/S 751 mmHg 45%
13:00 +30°C° 0 mm 2 m/S 751 mmHg 44%
14:00 +30°C° 0 mm 2 m/S 751 mmHg 44%
15:00 +29°C° 0 mm 2 m/S 750 mmHg 47%
16:00 +28°C° 0 mm 2 m/S 750 mmHg 51%
17:00 +27°C° 0 mm 2 m/S 750 mmHg 54%
18:00 +26°C° 0 mm 2 m/S 750 mmHg 57%
19:00 +25°C° 0 mm 2 m/S 750 mmHg 60%
20:00 +23°C° 0 mm 2 m/S 750 mmHg 63%
21:00 +23°C° 0.1 mm 2 m/S 749 mmHg 66%
22:00 +23°C° 0.1 mm 2 m/S 749 mmHg 68%
23:00 +21°C° 0.1 mm 3 m/S 749 mmHg 71%
Mehr zeigen